When you browse on this site, cookies collect data to enhance your experience and personalize the content and advertising you see.
Visit our Privacy Policy to learn more. By continuing to use the site, you agree to this use of cookies and data.
  • în România
  • Lista ţărilor
  • Pe 7 zile
  • Temperatura apei
  • Hartă satelitară
  • Meteo pe hartă
  • Widget-uri
  • user-avatar
    Intrare

    Meteo pe oră la Oksford

    Astăzi, 18 Decembrie, Marţi

    Timp Temperatura Precipitaţii Vânt Presiune Umiditate
    00:00 +7°C° 0 mm 6 m/s 755 mmHg 92%
    01:00 +8°C° 0 mm 6 m/s 755 mmHg 91%
    02:00 +8°C° 0 mm 7 m/s 754 mmHg 90%
    03:00 +8°C° 0 mm 7 m/s 754 mmHg 89%
    04:00 +7°C° 0 mm 8 m/s 753 mmHg 88%
    05:00 +9°C° 0 mm 8 m/s 753 mmHg 86%
    06:00 +9°C° 0 mm 8 m/s 752 mmHg 85%
    07:00 +7°C° 0 mm 9 m/s 752 mmHg 84%
    08:00 +7°C° 0 mm 9 m/s 751 mmHg 82%
    09:00 +7°C° 0 mm 10 m/s 750 mmHg 81%
    10:00 +7°C° 0.2 mm 10 m/s 750 mmHg 80%
    11:00 +7°C° 0.2 mm 10 m/s 749 mmHg 79%
    12:00 +7°C° 0.2 mm 9 m/s 748 mmHg 78%
    13:00 +7°C° 0.9 mm 9 m/s 748 mmHg 80%
    14:00 +7°C° 0.9 mm 9 m/s 747 mmHg 82%
    15:00 +6°C° 0.9 mm 9 m/s 746 mmHg 85%
    16:00 +6°C° 1.8 mm 8 m/s 746 mmHg 87%
    17:00 +6°C° 1.8 mm 8 m/s 746 mmHg 89%
    18:00 +8°C° 1.8 mm 7 m/s 745 mmHg 91%
    19:00 +7°C° 0.7 mm 6 m/s 746 mmHg 91%
    20:00 +7°C° 0.7 mm 5 m/s 746 mmHg 90%
    21:00 +7°C° 0.7 mm 4 m/s 746 mmHg 90%
    22:00 +6°C° 0 mm 4 m/s 746 mmHg 90%
    23:00 +6°C° 0 mm 4 m/s 747 mmHg 91%

    Mâine, 19 Decembrie, Miercuri

    Timp Temperatura Precipitaţii Vânt Presiune Umiditate
    00:00 +5°C° 0 mm 4 m/s 747 mmHg 91%
    01:00 +5°C° 0 mm 4 m/s 747 mmHg 91%
    02:00 +5°C° 0 mm 4 m/s 747 mmHg 91%
    03:00 +5°C° 0 mm 4 m/s 747 mmHg 92%
    04:00 +5°C° 0.3 mm 4 m/s 747 mmHg 92%
    05:00 +5°C° 0.3 mm 4 m/s 747 mmHg 92%
    06:00 +5°C° 0.3 mm 4 m/s 747 mmHg 92%
    07:00 +5°C° 0.1 mm 4 m/s 748 mmHg 92%
    08:00 +5°C° 0.1 mm 4 m/s 748 mmHg 92%
    09:00 +5°C° 0.1 mm 4 m/s 748 mmHg 91%
    10:00 +6°C° 0 mm 4 m/s 748 mmHg 87%
    11:00 +7°C° 0 mm 5 m/s 748 mmHg 83%
    12:00 +7°C° 0 mm 5 m/s 748 mmHg 79%
    13:00 +7°C° 0 mm 5 m/s 748 mmHg 80%
    14:00 +7°C° 0 mm 5 m/s 748 mmHg 81%
    15:00 +7°C° 0 mm 4 m/s 748 mmHg 82%
    16:00 +6°C° 0 mm 5 m/s 748 mmHg 83%
    17:00 +6°C° 0 mm 5 m/s 747 mmHg 84%
    18:00 +5°C° 0 mm 5 m/s 747 mmHg 85%
    19:00 +4°C° 0.1 mm 6 m/s 747 mmHg 85%
    20:00 +5°C° 0.1 mm 6 m/s 747 mmHg 86%
    21:00 +5°C° 0.1 mm 6 m/s 747 mmHg 86%
    22:00 +4°C° 0 mm 6 m/s 747 mmHg 86%
    23:00 +5°C° 0 mm 5 m/s 747 mmHg 86%

    Poimâine, 20 Decembrie, Joi

    Timp Temperatura Precipitaţii Vânt Presiune Umiditate
    00:00 +5°C° 0 mm 5 m/s 747 mmHg 86%
    01:00 +5°C° 0.1 mm 5 m/s 747 mmHg 86%
    02:00 +5°C° 0.1 mm 5 m/s 748 mmHg 86%
    03:00 +5°C° 0.1 mm 5 m/s 748 mmHg 87%
    04:00 +5°C° 0 mm 5 m/s 748 mmHg 87%
    05:00 +5°C° 0 mm 5 m/s 748 mmHg 87%
    06:00 +5°C° 0 mm 5 m/s 749 mmHg 87%
    07:00 +5°C° 0 mm 5 m/s 749 mmHg 87%
    08:00 +5°C° 0 mm 5 m/s 750 mmHg 87%
    09:00 +5°C° 0 mm 5 m/s 750 mmHg 87%
    10:00 +5°C° 0 mm 6 m/s 751 mmHg 84%
    11:00 +7°C° 0 mm 6 m/s 751 mmHg 81%
    12:00 +8°C° 0 mm 6 m/s 751 mmHg 78%
    13:00 +8°C° 0.1 mm 6 m/s 751 mmHg 79%
    14:00 +8°C° 0.1 mm 6 m/s 751 mmHg 79%
    15:00 +7°C° 0.1 mm 5 m/s 752 mmHg 80%
    16:00 +7°C° 0 mm 5 m/s 752 mmHg 82%
    17:00 +6°C° 0 mm 5 m/s 752 mmHg 85%
    18:00 +6°C° 0 mm 5 m/s 752 mmHg 87%
    19:00 +5°C° 0 mm 4 m/s 751 mmHg 88%
    20:00 +5°C° 0 mm 4 m/s 751 mmHg 89%
    21:00 +5°C° 0 mm 3 m/s 751 mmHg 90%
    22:00 +6°C° 0.5 mm 4 m/s 750 mmHg 91%
    23:00 +7°C° 0.5 mm 4 m/s 749 mmHg 93%

    21 Decembrie, Vineri

    Timp Temperatura Precipitaţii Vânt Presiune Umiditate
    00:00 +7°C° 0.5 mm 5 m/s 748 mmHg 95%
    01:00 +8°C° 1.1 mm 5 m/s 746 mmHg 95%
    02:00 +9°C° 1.1 mm 6 m/s 745 mmHg 95%
    03:00 +10°C° 1.1 mm 6 m/s 744 mmHg 95%
    04:00 +11°C° 0.4 mm 7 m/s 743 mmHg 94%
    05:00 +11°C° 0.4 mm 7 m/s 742 mmHg 93%
    06:00 +12°C° 0.4 mm 8 m/s 741 mmHg 92%
    07:00 +11°C° 0.3 mm 8 m/s 742 mmHg 87%
    08:00 +10°C° 0.3 mm 9 m/s 743 mmHg 82%
    09:00 +8°C° 0.3 mm 10 m/s 744 mmHg 78%
    10:00 +8°C° 0 mm 10 m/s 745 mmHg 75%
    11:00 +8°C° 0 mm 10 m/s 746 mmHg 73%
    12:00 +8°C° 0 mm 10 m/s 747 mmHg 70%
    13:00 +8°C° 0 mm 9 m/s 748 mmHg 73%
    14:00 +9°C° 0 mm 8 m/s 748 mmHg 76%
    15:00 +9°C° 0 mm 7 m/s 749 mmHg 78%
    16:00 +9°C° 0.1 mm 7 m/s 749 mmHg 80%
    17:00 +9°C° 0.1 mm 7 m/s 749 mmHg 82%
    18:00 +9°C° 0.1 mm 7 m/s 749 mmHg 83%
    19:00 +9°C° 0.5 mm 8 m/s 749 mmHg 84%
    20:00 +9°C° 0.5 mm 8 m/s 749 mmHg 85%
    21:00 +8°C° 0.5 mm 9 m/s 749 mmHg 86%
    22:00 +8°C° 0.9 mm 9 m/s 748 mmHg 86%
    23:00 +8°C° 0.9 mm 9 m/s 748 mmHg 86%

    22 Decembrie, Sâmbătă

    Timp Temperatura Precipitaţii Vânt Presiune Umiditate
    00:00 +10°C° 0.9 mm 9 m/s 748 mmHg 86%
    01:00 +9°C° 0 mm 8 m/s 748 mmHg 85%
    02:00 +7°C° 0 mm 8 m/s 749 mmHg 85%
    03:00 +8°C° 0 mm 7 m/s 749 mmHg 84%
    04:00 +6°C° 0 mm 7 m/s 750 mmHg 83%
    05:00 +7°C° 0 mm 6 m/s 750 mmHg 83%
    06:00 +5°C° 0 mm 6 m/s 750 mmHg 82%
    07:00 +5°C° 0 mm 6 m/s 751 mmHg 82%
    08:00 +6°C° 0 mm 5 m/s 752 mmHg 83%
    09:00 +6°C° 0 mm 5 m/s 753 mmHg 83%
    10:00 +5°C° 0 mm 6 m/s 753 mmHg 80%
    11:00 +7°C° 0 mm 6 m/s 754 mmHg 77%
    12:00 +8°C° 0 mm 6 m/s 754 mmHg 74%
    13:00 +8°C° 0 mm 6 m/s 755 mmHg 75%
    14:00 +8°C° 0 mm 5 m/s 755 mmHg 77%
    15:00 +7°C° 0 mm 4 m/s 755 mmHg 78%
    16:00 +7°C° 0 mm 4 m/s 756 mmHg 80%
    17:00 +6°C° 0 mm 4 m/s 756 mmHg 82%
    18:00 +5°C° 0 mm 4 m/s 757 mmHg 84%
    19:00 +5°C° 0 mm 4 m/s 757 mmHg 85%
    20:00 +5°C° 0 mm 4 m/s 758 mmHg 87%
    21:00 +5°C° 0 mm 4 m/s 758 mmHg 88%
    22:00 +5°C° 0 mm 4 m/s 758 mmHg 89%
    23:00 +5°C° 0 mm 4 m/s 758 mmHg 90%

    23 Decembrie, Duminică

    Timp Temperatura Precipitaţii Vânt Presiune Umiditate
    00:00 +5°C° 0 mm 4 m/s 759 mmHg 91%
    01:00 +5°C° 0 mm 4 m/s 759 mmHg 91%
    02:00 +5°C° 0 mm 3 m/s 759 mmHg 92%
    03:00 +5°C° 0 mm 3 m/s 759 mmHg 93%
    04:00 +7°C° 0 mm 3 m/s 758 mmHg 94%
    05:00 +7°C° 0 mm 3 m/s 758 mmHg 95%
    06:00 +7°C° 0 mm 3 m/s 758 mmHg 96%
    07:00 +7°C° 0 mm 3 m/s 758 mmHg 96%
    08:00 +7°C° 0 mm 3 m/s 758 mmHg 96%
    09:00 +8°C° 0 mm 3 m/s 758 mmHg 96%
    10:00 +8°C° 0.3 mm 3 m/s 758 mmHg 96%
    11:00 +7°C° 0.3 mm 4 m/s 757 mmHg 95%
    12:00 +8°C° 0.3 mm 4 m/s 757 mmHg 94%
    13:00 +8°C° 0.6 mm 4 m/s 757 mmHg 95%
    14:00 +9°C° 0.6 mm 5 m/s 756 mmHg 95%
    15:00 +9°C° 0.6 mm 5 m/s 756 mmHg 95%
    16:00 +10°C° 0.4 mm 6 m/s 755 mmHg 94%
    17:00 +10°C° 0.4 mm 6 m/s 755 mmHg 93%
    18:00 +11°C° 0.4 mm 7 m/s 755 mmHg 91%
    19:00 +10°C° 0.2 mm 7 m/s 755 mmHg 91%
    20:00 +10°C° 0.2 mm 7 m/s 755 mmHg 91%
    21:00 +10°C° 0.2 mm 7 m/s 755 mmHg 91%
    22:00 +10°C° 0.1 mm 7 m/s 756 mmHg 91%
    23:00 +11°C° 0.1 mm 6 m/s 756 mmHg 92%
    Arată mai mult